EW4725 Weather Reports


Display with metric or nautical units.
time (UTC)temp
F
wind
direction
speed
MPH
gust
MPH
rain 1hr
in
rain 24hr
in
rain mn
in
humidity
%
barometer
mb
20260510092916 60 0.0 1.0 0.00 0.00 0.00 91 1012.7
20260510092416 60 103 3.0 4.0 0.00 0.00 0.00 91 1012.7
20260510091916 60 215 1.0 1.0 0.00 0.00 0.00 90 1012.7
20260510091416 60 148 1.0 2.0 0.00 0.00 0.00 90 1012.7
20260510090916 60 148 1.0 2.0 0.00 0.00 0.00 90 1012.7
20260510090416 60 125 2.0 3.0 0.00 0.00 0.00 90 1012.8
20260510085916 60 125 3.0 4.0 0.00 0.00 0.00 90 1012.7
20260510085416 60 125 2.0 3.0 0.00 0.00 0.00 90 1012.7
20260510084916 60 125 2.0 4.0 0.00 0.00 0.00 90 1012.7
20260510084416 60 0.0 1.0 0.00 0.00 0.00 90 1012.7
20260510083916 60 170 1.0 3.0 0.00 0.00 0.00 90 1012.8
20260510083436 60 125 2.0 3.0 0.00 0.00 0.00 90 1012.7
20260510082916 60 0.0 1.0 0.00 0.00 0.00 90 1012.7
20260510082416 60 0.0 0.0 0.00 0.00 0.00 90 1012.8
20260510081915 60 0.0 0.0 0.00 0.00 0.00 90 1012.9
20260510081416 60 125 3.0 4.0 0.00 0.00 0.00 89 1012.9
20260510080916 61 170 1.0 1.0 0.00 0.00 0.00 90 1012.9
20260510080416 61 0.0 0.0 0.00 0.00 0.00 90 1012.9
20260510075916 61 148 2.0 3.0 0.00 0.00 0.00 90 1012.9
20260510075416 61 125 2.0 4.0 0.00 0.00 0.00 90 1013.0
20260510074916 61 148 2.0 4.0 0.00 0.00 0.00 89 1013.0
20260510074416 61 103 2.0 3.0 0.00 0.00 0.00 89 1013.0
20260510073915 61 125 4.0 6.0 0.00 0.00 0.00 89 1013.1
20260510073415 61 125 3.0 4.0 0.00 0.00 0.00 89 1013.1
20260510072915 61 148 2.0 4.0 0.00 0.00 0.00 89 1013.1
20260510072416 61 170 2.0 3.0 0.00 0.00 0.00 89 1013.0
20260510071955 61 0.0 2.0 0.00 0.00 0.00 89 1013.1
20260510071415 61 0.0 0.0 0.00 0.00 0.00 89 1013.1
20260510070936 61 0.0 1.0 0.00 0.00 0.00 89 1013.0
20260510070415 61 103 1.0 2.0 0.00 0.00 0.00 90 1013.1
20260510065916 61 125 2.0 2.0 0.00 0.00 0.00 90 1013.1
20260510065416 61 148 1.0 3.0 0.00 0.00 0.00 90 1013.1
20260510064916 61 125 4.0 5.0 0.00 0.00 0.00 90 1013.1
20260510064416 61 148 2.0 3.0 0.00 0.00 0.00 90 1013.1
20260510063916 61 0.0 0.0 0.00 0.00 0.00 90 1013.2
20260510063416 60 148 2.0 2.0 0.00 0.00 0.00 90 1013.1
20260510062936 60 148 1.0 2.0 0.00 0.00 0.00 91 1013.1
20260510062416 60 0.0 1.0 0.00 0.00 0.00 91 1013.1
20260510061916 60 125 2.0 3.0 0.00 0.00 0.00 91 1013.1
20260510061416 60 305 1.0 1.0 0.00 0.00 0.00 91 1013.1
20260510060936 60 0.0 0.0 0.00 0.00 0.00 91 1013.1
20260510060416 60 283 2.0 2.0 0.00 0.00 0.00 91 1013.1
20260510055916 60 0.0 1.0 0.00 0.00 0.00 91 1013.1
20260510055416 60 0.0 0.0 0.00 0.00 0.00 91 1013.1
20260510054956 60 238 1.0 2.0 0.00 0.00 0.00 91 1013.2
20260510054436 60 238 1.0 1.0 0.00 0.00 0.00 91 1013.2
20260510053916 60 0.0 0.0 0.00 0.00 0.00 91 1013.2
20260510053416 60 0.0 0.0 0.00 0.00 0.00 91 1013.2
20260510052916 60 0.0 1.0 0.00 0.00 0.00 91 1013.3
20260510052416 59 0.0 1.0 0.00 0.00 0.00 91 1013.1
20260510051916 59 328 1.0 3.0 0.00 0.00 0.00 91 1013.1
20260510051436 59 0.0 0.0 0.00 0.00 0.00 91 1013.1
20260510050916 59 283 1.0 2.0 0.00 0.00 0.00 91 1013.1
20260510050436 59 0.0 1.0 0.00 0.00 0.00 91 1013.2
20260510045916 59 283 1.0 2.0 0.00 0.00 0.00 91 1013.2
20260510045416 59 328 1.0 3.0 0.00 0.00 0.00 91 1013.2
20260510044916 59 260 2.0 3.0 0.00 0.00 0.00 91 1013.1
20260510044416 59 305 2.0 3.0 0.00 0.00 0.00 91 1013.0
20260510043916 59 305 1.0 2.0 0.00 0.00 0.00 91 1013.1
20260510043416 60 283 3.0 4.0 0.00 0.00 0.00 91 1013.0
20260510042936 60 260 2.0 3.0 0.00 0.00 0.00 90 1013.0
20260510042416 60 305 2.0 4.0 0.00 0.00 0.00 90 1012.9
20260510041916 60 305 2.0 3.0 0.00 0.00 0.00 90 1012.9
20260510041416 60 260 3.0 4.0 0.00 0.00 0.00 90 1012.9
20260510040916 60 283 2.0 3.0 0.00 0.00 0.00 90 1012.8
20260510040416 60 283 2.0 3.0 0.00 0.00 0.00 90 1012.7
20260510035916 60 305 2.0 4.0 0.00 0.00 0.00 90 1012.7
20260510035436 60 0.0 1.0 0.00 0.00 0.00 90 1012.6
20260510034916 60 283 2.0 3.0 0.00 0.00 0.00 90 1012.6
20260510034436 60 260 3.0 4.0 0.00 0.00 0.00 89 1012.5
20260510033916 61 305 3.0 6.0 0.00 0.00 0.00 89 1012.4
20260510033416 61 305 1.0 2.0 0.00 0.00 0.00 89 1012.2
20260510032916 61 283 4.0 6.0 0.00 0.00 0.00 89 1012.2
20260510032416 61 283 3.0 5.0 0.00 0.00 0.00 89 1012.1
20260510031916 61 305 3.0 4.0 0.00 0.00 0.00 88 1012.1
20260510031416 61 305 3.0 5.0 0.00 0.00 0.00 88 1012.1
20260510030916 61 260 3.0 4.0 0.00 0.00 0.00 88 1012.0
20260510030416 61 283 3.0 4.0 0.00 0.00 0.00 88 1011.9
20260510025916 61 283 3.0 4.0 0.00 0.00 0.00 87 1011.9
20260510025416 62 283 3.0 6.0 0.00 0.00 0.00 87 1011.9
20260510024916 62 305 3.0 5.0 0.00 0.00 0.00 86 1011.8
20260510024416 62 305 2.0 4.0 0.00 0.00 0.00 86 1011.8
20260510023915 63 260 3.0 5.0 0.00 0.00 0.00 85 1011.7
20260510023416 63 305 4.0 7.0 0.00 0.00 0.00 84 1011.7
20260510022915 63 260 4.0 5.0 0.00 0.00 0.00 84 1011.6
20260510022416 63 305 4.0 6.0 0.00 0.00 0.00 84 1011.6
20260510021916 64 283 3.0 4.0 0.00 0.00 0.00 83 1011.6
20260510021416 64 283 4.0 6.0 0.00 0.00 0.00 83 1011.5
20260510020935 64 260 6.0 9.0 0.00 0.00 0.00 81 1011.5
20260510020415 65 305 4.0 8.0 0.00 0.00 0.00 81 1011.5
20260510015916 65 283 4.0 7.0 0.00 0.00 0.00 81 1011.4
20260510015416 65 305 5.0 7.0 0.00 0.00 0.00 80 1011.4
20260510014916 65 260 5.0 7.0 0.00 0.00 0.00 80 1011.3
20260510014415 66 283 6.0 9.0 0.00 0.00 0.00 78 1011.4
20260510013915 66 283 5.0 8.0 0.00 0.00 0.00 78 1011.3
20260510013415 67 305 4.0 6.0 0.00 0.00 0.00 77 1011.3
20260510012915 67 283 7.0 10.0 0.00 0.00 0.00 75 1011.2
20260510012415 67 283 4.0 6.0 0.00 0.00 0.00 76 1011.2
20260510011916 68 283 6.0 9.0 0.00 0.00 0.00 75 1011.2
20260510011416 68 283 6.0 12.0 0.00 0.00 0.00 74 1011.1
20260510010915 69 283 5.0 8.0 0.00 0.00 0.00 74 1011.1
20260510010415 70 260 4.0 7.0 0.00 0.00 0.00 72 1011.0
20260510005956 70 283 4.0 7.0 0.00 0.00 0.00 73 1011.0
20260510005415 70 260 5.0 8.0 0.00 0.00 0.00 71 1011.1
20260510004916 71 283 8.0 13.0 0.00 0.00 0.00 70 1011.1
20260510004416 71 283 6.0 10.0 0.00 0.00 0.00 69 1011.1
20260510003916 71 283 6.0 8.0 0.00 0.00 0.00 68 1011.1
20260510003415 71 260 5.0 8.0 0.00 0.00 0.00 68 1011.0
20260510002916 71 305 6.0 8.0 0.00 0.00 0.00 68 1011.1
20260510002415 72 283 7.0 11.0 0.00 0.00 0.00 67 1011.1
20260510001915 71 283 4.0 8.0 0.00 0.00 0.00 68 1011.1
20260510001415 71 260 6.0 9.0 0.00 0.00 0.00 68 1011.2
20260510000915 72 283 8.0 10.0 0.00 0.00 0.00 68 1011.1
20260510000418 72 260 7.0 9.0 0.00 0.00 0.00 67 1011.2
20260509235936 72 283 6.0 10.0 0.00 0.00 0.00 67 1011.1
20260509235415 73 260 6.0 8.0 0.00 0.00 0.00 67 1011.2
20260509234915 73 283 7.0 10.0 0.00 0.00 0.00 66 1011.2
20260509234415 73 260 6.0 8.0 0.00 0.00 0.00 65 1011.2
20260509234016 74 260 7.0 9.0 0.00 0.00 0.00 64 1011.1
20260509233415 75 283 4.0 6.0 0.00 0.00 0.00 63 1011.1
20260509232936 75 283 5.0 7.0 0.00 0.00 0.00 63 1011.2
20260509232415 74 283 4.0 6.0 0.00 0.00 0.00 63 1011.1
20260509231915 75 283 4.0 6.0 0.00 0.00 0.00 63 1011.1
20260509231415 75 283 5.0 9.0 0.00 0.00 0.00 64 1011.2
20260509230916 74 283 3.0 4.0 0.00 0.00 0.00 63 1011.2
20260509230416 74 305 5.0 8.0 0.00 0.00 0.00 64 1011.2
20260509225915 74 260 4.0 7.0 0.00 0.00 0.00 64 1011.1
20260509225415 74 283 4.0 6.0 0.00 0.00 0.00 63 1011.2
20260509224935 75 260 4.0 7.0 0.00 0.00 0.00 63 1011.2
20260509224415 75 260 5.0 8.0 0.00 0.00 0.00 63 1011.2
20260509223915 75 305 5.0 7.0 0.00 0.00 0.00 63 1011.3
20260509223415 75 170 4.0 7.0 0.00 0.00 0.00 63 1011.3
20260509222915 75 283 4.0 6.0 0.00 0.00 0.00 64 1011.4
20260509222435 75 260 5.0 8.0 0.00 0.00 0.00 64 1011.5
20260509221915 75 260 5.0 7.0 0.00 0.00 0.00 63 1011.6
20260509221415 76 260 3.0 5.0 0.00 0.00 0.00 63 1011.8
20260509220915 75 193 5.0 8.0 0.00 0.00 0.00 64 1011.8
20260509220435 75 148 5.0 7.0 0.00 0.00 0.00 64 1011.8
20260509215915 75 238 4.0 6.0 0.00 0.00 0.00 63 1012.0
20260509215415 76 148 6.0 8.0 0.00 0.00 0.00 63 1012.0
20260509214915 75 148 4.0 7.0 0.00 0.00 0.00 64 1011.9
20260509214415 75 170 2.0 5.0 0.00 0.00 0.00 63 1011.9
20260509213915 75 260 3.0 4.0 0.00 0.00 0.00 64 1011.9
20260509213415 75 215 3.0 5.0 0.00 0.00 0.00 64 1012.1
20260509212915 74 238 2.0 3.0 0.00 0.00 0.00 65 1012.1
20260509212435 74 215 2.0 4.0 0.00 0.00 0.00 65 1012.2
20260509211917 74 215 3.0 4.0 0.00 0.00 0.00 65 1012.4
20260509211417 74 170 5.0 7.0 0.00 0.00 0.00 65 1012.4
20260509210917 74 215 4.0 6.0 0.00 0.00 0.00 65 1012.4
20260509210417 74 260 4.0 6.0 0.00 0.00 0.00 65 1012.4
20260509205917 74 260 5.0 7.0 0.00 0.00 0.00 65 1012.5
20260509205415 74 148 3.0 5.0 0.00 0.00 0.00 65 1012.6
20260509204917 74 148 4.0 5.0 0.00 0.00 0.00 66 1012.6
20260509204417 73 125 2.0 3.0 0.00 0.00 0.00 67 1012.6
20260509203917 73 148 7.0 8.0 0.00 0.00 0.00 66 1012.6
20260509203417 74 148 5.0 7.0 0.00 0.00 0.00 65 1012.7
20260509202917 74 260 3.0 6.0 0.00 0.00 0.00 66 1012.7
20260509202437 73 170 3.0 5.0 0.00 0.00 0.00 68 1012.7
20260509201917 73 238 2.0 5.0 0.00 0.00 0.00 67 1012.8
20260509201417 72 215 3.0 6.0 0.00 0.00 0.00 67 1012.8
20260509200918 73 148 7.0 9.0 0.00 0.00 0.00 68 1012.8
20260509200417 73 125 6.0 9.0 0.00 0.00 0.00 68 1012.8
20260509195917 72 148 6.0 9.0 0.00 0.00 0.00 68 1012.9
20260509195415 73 148 6.0 8.0 0.00 0.00 0.00 67 1012.9
20260509194917 73 148 6.0 10.0 0.00 0.00 0.00 66 1012.9
20260509194417 74 148 2.0 11.0 0.00 0.00 0.00 66 1013.0
20260509193917 74 125 4.0 6.0 0.00 0.00 0.00 66 1013.1
20260509193437 74 170 4.0 7.0 0.00 0.00 0.00 66 1013.1
20260509192917 74 148 5.0 8.0 0.00 0.00 0.00 65 1013.1
20260509192417 74 170 4.0 6.0 0.00 0.00 0.00 66 1013.1
20260509191917 74 193 2.0 4.0 0.00 0.00 0.00 66 1013.2
20260509191417 73 148 3.0 6.0 0.00 0.00 0.00 67 1013.3
20260509190917 72 125 2.0 4.0 0.00 0.00 0.00 68 1013.4
20260509190417 72 148 3.0 4.0 0.00 0.00 0.00 69 1013.4
20260509185917 72 238 3.0 5.0 0.00 0.00 0.00 69 1013.4
20260509185417 72 283 3.0 5.0 0.00 0.00 0.00 68 1013.5
20260509184917 72 238 3.0 7.0 0.00 0.00 0.00 70 1013.5
20260509184417 72 260 4.0 6.0 0.00 0.00 0.00 70 1013.5
20260509183917 72 148 4.0 6.0 0.00 0.00 0.00 70 1013.6
20260509183537 72 260 5.0 5.0 0.00 0.00 0.00 69 1013.6
20260509182937 72 170 3.0 4.0 0.00 0.00 0.00 71 1013.6
20260509182417 71 215 2.0 5.0 0.00 0.00 0.00 71 1013.6
20260509181917 71 238 2.0 5.0 0.00 0.00 0.00 72 1013.6
20260509181417 70 328 1.0 2.0 0.00 0.00 0.00 72 1013.6
20260509180917 70 305 2.0 3.0 0.00 0.00 0.00 72 1013.6
20260509180417 70 170 2.0 3.0 0.00 0.00 0.00 73 1013.6
20260509175917 70 283 3.0 4.0 0.00 0.00 0.00 72 1013.8
20260509175417 70 215 1.0 3.0 0.00 0.00 0.00 73 1013.8
20260509174937 69 283 3.0 4.0 0.00 0.00 0.00 74 1013.9
20260509174417 68 148 1.0 2.0 0.00 0.00 0.00 75 1013.9
20260509173937 68 215 3.0 4.0 0.00 0.00 0.00 75 1013.9
20260509173417 67 58 2.0 3.0 0.00 0.00 0.00 78 1013.9
20260509172917 67 103 1.0 2.0 0.00 0.00 0.00 78 1013.8
20260509172437 67 125 4.0 6.0 0.00 0.00 0.00 78 1013.8
20260509171917 66 0.0 3.0 0.00 0.00 0.00 81 1013.8
20260509171417 66 125 1.0 2.0 0.00 0.00 0.00 80 1013.8
20260509170937 65 13 2.0 5.0 0.00 0.00 0.00 81 1013.7
20260509170417 65 58 2.0 3.0 0.00 0.00 0.00 82 1013.6
20260509165917 65 125 3.0 4.0 0.00 0.00 0.00 81 1013.6
20260509165416 65 238 1.0 4.0 0.00 0.00 0.00 82 1013.6
20260509164917 65 148 1.0 2.0 0.00 0.00 0.00 83 1013.7
20260509164417 64 0.0 1.0 0.00 0.00 0.00 83 1013.7
20260509163937 64 0.0 1.0 0.00 0.00 0.00 84 1013.7
20260509163457 64 170 1.0 3.0 0.00 0.00 0.00 84 1013.7
20260509162937 64 80 2.0 3.0 0.00 0.00 0.00 85 1013.7
20260509162417 63 170 1.0 2.0 0.00 0.00 0.00 85 1013.7
20260509161917 63 148 1.0 2.0 0.00 0.00 0.00 85 1013.7
20260509161417 63 125 3.0 4.0 0.00 0.00 0.00 85 1013.7
20260509160917 63 0.0 1.0 0.00 0.00 0.00 85 1013.7
20260509160417 63 0.0 0.0 0.00 0.00 0.00 86 1013.8
20260509155916 63 0.0 1.0 0.00 0.00 0.00 86 1013.8
20260509155417 63 35 1.0 2.0 0.00 0.00 0.00 86 1013.8
20260509154937 63 80 1.0 2.0 0.00 0.00 0.00 86 1013.8
20260509154417 63 0.0 1.0 0.00 0.00 0.00 87 1013.9
20260509153916 62 193 1.0 2.0 0.00 0.00 0.00 86 1013.8
20260509153416 62 148 3.0 5.0 0.00 0.00 0.00 86 1013.8
20260509152917 62 125 1.0 3.0 0.00 0.00 0.00 87 1013.8
20260509152417 62 0.0 1.0 0.00 0.00 0.00 87 1013.8
20260509151916 62 125 1.0 1.0 0.00 0.00 0.00 87 1013.8
20260509151436 62 125 1.0 2.0 0.00 0.00 0.00 88 1013.8
20260509150937 62 125 3.0 4.0 0.00 0.00 0.00 88 1013.8
20260509150416 62 125 2.0 3.0 0.00 0.00 0.00 88 1013.8
20260509145917 62 103 1.0 2.0 0.00 0.00 0.00 88 1013.8
20260509145457 61 0.0 0.0 0.00 0.00 0.00 88 1013.8
20260509144917 61 148 2.0 3.0 0.00 0.00 0.00 88 1013.9
20260509144416 61 103 2.0 4.0 0.00 0.00 0.00 88 1013.9
20260509143916 61 103 1.0 2.0 0.00 0.00 0.00 88 1013.8
20260509143436 61 125 2.0 3.0 0.00 0.00 0.00 88 1013.8
20260509142917 61 148 1.0 2.0 0.00 0.00 0.00 89 1013.8
20260509142416 61 0.0 1.0 0.00 0.00 0.00 89 1013.8
20260509141916 61 0.0 2.0 0.00 0.00 0.00 89 1013.8
20260509141416 61 125 2.0 2.0 0.00 0.00 0.00 89 1013.8
20260509140916 61 125 2.0 3.0 0.00 0.00 0.00 89 1013.6
20260509140416 61 0.0 1.0 0.00 0.00 0.00 89 1013.6
20260509135916 61 0.0 0.0 0.00 0.00 0.00 89 1013.6
20260509135417 61 0.0 0.0 0.00 0.00 0.00 89 1013.6
20260509134917 61 148 1.0 1.0 0.00 0.00 0.00 89 1013.7
20260509134416 61 193 2.0 2.0 0.00 0.00 0.00 89 1013.5
20260509133916 61 58 2.0 3.0 0.00 0.00 0.00 90 1013.5
20260509133417 61 0.0 0.0 0.00 0.00 0.00 89 1013.6
20260509132917 61 80 1.0 2.0 0.00 0.00 0.00 89 1013.5
20260509132417 61 125 1.0 1.0 0.00 0.00 0.00 89 1013.5
20260509131916 61 0.0 0.0 0.00 0.00 0.00 89 1013.3
20260509131416 61 125 1.0 2.0 0.00 0.00 0.00 90 1013.3
20260509130916 61 0.0 0.0 0.00 0.00 0.00 90 1013.2
20260509130416 60 125 1.0 3.0 0.00 0.00 0.00 90 1013.2
20260509125916 60 58 1.0 2.0 0.00 0.00 0.00 90 1013.2
20260509125416 60 103 1.0 1.0 0.00 0.00 0.00 90 1013.2
20260509124916 60 103 1.0 2.0 0.00 0.00 0.00 90 1013.2
20260509124416 60 125 2.0 3.0 0.00 0.00 0.00 90 1013.2
20260509123916 60 0.0 1.0 0.00 0.00 0.00 90 1013.1
20260509123416 60 125 1.0 2.0 0.00 0.00 0.00 90 1013.2
20260509122916 60 125 1.0 2.0 0.00 0.00 0.00 90 1013.1
20260509122416 60 0.0 0.0 0.00 0.00 0.00 90 1013.2
20260509121916 60 125 2.0 2.0 0.00 0.00 0.00 90 1013.1
20260509121416 60 148 1.0 2.0 0.00 0.00 0.00 90 1013.2
20260509120916 60 148 3.0 4.0 0.00 0.00 0.00 90 1013.2
20260509120416 60 148 2.0 2.0 0.00 0.00 0.00 90 1013.3
20260509115916 60 0.0 1.0 0.00 0.00 0.00 90 1013.3
20260509115416 60 0.0 0.0 0.00 0.00 0.00 90 1013.3
20260509114916 60 0.0 0.0 0.00 0.00 0.00 90 1013.3
20260509114416 60 125 1.0 2.0 0.00 0.00 0.00 90 1013.3
20260509113916 60 125 2.0 4.0 0.00 0.00 0.00 90 1013.3
20260509113416 60 0.0 0.0 0.00 0.00 0.00 90 1013.3
20260509112936 60 125 3.0 4.0 0.00 0.00 0.00 90 1013.2
20260509112416 60 148 2.0 3.0 0.00 0.00 0.00 90 1013.2
20260509111916 60 125 1.0 2.0 0.00 0.00 0.00 90 1013.2
20260509111436 60 0.0 1.0 0.00 0.00 0.00 90 1013.2
20260509110916 60 103 1.0 2.0 0.00 0.00 0.00 90 1013.2
20260509110416 60 0.0 0.0 0.00 0.00 0.00 90 1013.2
20260509105916 60 148 1.0 1.0 0.00 0.00 0.00 90 1013.2
20260509105436 60 0.0 1.0 0.00 0.00 0.00 91 1013.2
20260509104916 60 148 2.0 3.0 0.00 0.00 0.00 91 1013.3
20260509104416 60 0.0 0.0 0.00 0.00 0.00 91 1013.3
20260509103916 60 148 1.0 2.0 0.00 0.00 0.00 90 1013.4
20260509103416 60 148 2.0 3.0 0.00 0.00 0.00 90 1013.4
20260509102916 60 148 1.0 2.0 0.00 0.00 0.00 90 1013.3
20260509102416 60 125 1.0 2.0 0.00 0.00 0.00 90 1013.3
20260509101916 60 125 2.0 4.0 0.00 0.00 0.00 91 1013.4
20260509101416 60 170 1.0 2.0 0.00 0.00 0.00 91 1013.5
20260509100936 60 0.0 1.0 0.00 0.00 0.00 91 1013.5
20260509100416 60 148 2.0 3.0 0.00 0.00 0.00 90 1013.4
20260509095916 60 125 1.0 2.0 0.00 0.00 0.00 91 1013.5
20260509095436 60 215 2.0 3.0 0.00 0.00 0.00 90 1013.5
20260509094916 60 125 2.0 2.0 0.00 0.00 0.00 90 1013.6
20260509094416 60 125 2.0 3.0 0.00 0.00 0.00 90 1013.6
20260509093916 60 148 2.0 4.0 0.00 0.00 0.00 90 1013.6
20260509093416 60 0.0 1.0 0.00 0.00 0.00 90 1013.7